Terug naar catalogus

GOES 5

ActiefWeerGEO
NORAD 12472·PAYLOAD·🇺🇸 United States

Gelanceerd May 22, 1981 vanaf Cape Canaveral Space Force Station

Loading…

TLE

VersSource: Space-Track

Epoch: Sep 14, 2026, 09:48 UTC

1 12472U 81049A   26257.40836388  .00000055  00000-0  00000-0 0  9990
2 12472   9.2054 315.1404 0003965 309.8528 103.3945  1.00226724123740

Volg GOES 5 in realtime met AllMySat

Download on the App Store